PSLV DEB

基本信息
目录编号:
27123
目录名称:
PSLV DEB
国际标识:
2001-049BT
轨道中心:
EARTH
物体状态:
在轨
发射日期:
2001-10-22 UTC
轨道信息
数据来源: 国际轨道数据
星历时间: 2026-09-10T10:43:20+0800
半长轴: 7031.488km
偏心率: 0.0039277
轨道倾角: 97.378°
近地点辐角: 131.159°
升交点赤经: 202.374°
平近点角: 229.302°
近地点: 625.733km
远地点: 680.969km
周期: 97.798分钟
每日圈数: 14.724209
详细信息
发射场:
SRI
轨道高度:
LEO
数据来源:
AOE Integration Group
参考系:
TEME
时间系统:
UTC
历元类型:
SGP4
2D轨道图
3D轨道图
轨道高度分析图
轨道倾角分析图
轨道综合分析图
查看轨道综合分析图